FENGYUN 1C DEB, 30357

Orbit data source: Space-Track

FENGYUN 1C DEB, 30357 is space debris in SSO originally from a launch on Mon, 10 May 1999 UTC launched from the Taiyaun Space Center, China (TSC). Fengyun 1C debris stems from the Chinese weather satellite Fengyun-1C, which was intentionally destroyed by a Chinese anti-satellite missile in 2007. This event dramatically increased the amount of space debris, with thousands of trackable fragments posing hazards to satellites and human spaceflight. The Fengyun 1C debris cloud has become a focal point in discussions about space sustainability and the need for international regulations to prevent the creation of new debris.

Loading next visibility...
Identifier
30357, 1999-025ABU
Orbit
SSO
Country
Flag of CNCN / PRC
Related business
Manufacturer
Unknown
Mission
Spacecraft
Bus & Motor
Unknown
Mass
Unknown
Launch date (UTC)
1999-05-10 (27 years ago)
Launch vehicle
Unknown
Launch site
Taiyaun Space Center, China (TSC)
Object type
Payload
Rocket body
Debris
Shape & HBR
Unknown shape, 0.1 m
Radar Cross Section
Medium (>0.1 m² and <1 m²)

Expand to show TLE details & history
Last TLE update: 17 hours ago

TLE from 17 hours ago
0 FENGYUN 1C DEB
1 30357U 99025ABU 26208.04255089 -.00000052  00000-0 -61491-5 0  9999
2 30357  98.7848 233.5125 0050351  55.3454   5.3208 14.05362022999858
Epoch: 2026-07-27T01:01Z
TLE epoch observation values (Epoch: 2026-07-27T01:01:16.396Z)
Latitude
59.63972°
Longitude
-101.75167°
Altitude
849.004 km
Speed
7.452 km/s
True Right ascension
14h 33m 11s
True Declination
59° 29' 29"
Sunlit
Object was in daylight at epoch
Visualization orbit readout
Latitude
Unknown
Longitude
Unknown
Altitude
Unknown
Speed
Unknown
Apparent Right ascension
Unknown
Apparent Declination
Unknown
Sunlit
N/A
Visualization observer readout
Local Sidereal Time
07:10:39
Azimuth
Unknown
Elevation
Unknown
Doppler factor
Unknown
Orbital elements
Apogee altitude
908.976 km
Perigee altitude
835.961 km
Semi-major axis
7,250.605 km
Eccentricity
0.00504
Inclination
98.7848°
RAAN
233.5125°
Arg. of periapsis
55.3454°
True anomaly
5.37464°
Mean anomaly
5.3208°
Eccentric anomaly
5.34769°
Mean motion
3.51546 °/min
Orbital period
102.4 mins
BSTAR
-0.0000061491
Loading maneuver chart data...
Computing Atmospheric mass density...

Documentation

Showing up to 5 results
|